Home > Weather > Foz do Iguaçu > Past weeks

Flag for Brazil Past Weather in Foz do Iguaçu, Paraná, Brazil — Yesterday and Last 2 Weeks

Now
48 °F

Sunny.


Feels Like: 43 °F
Forecast: 46 / 69 °F
Wind: 12 mph from East

Location: Foz Do Iguacu Aeroporto

Current Time: May 24, 2016 at 8:51:25 AM

Latest Report: May 24, 2016 at 8:00 AM


Visibility: 10 mi

Pressure: 30.30 "Hg

Humidity: 87%

Dew Point: 45 °F

Location of Foz do IguaçuLocation

Past Weather in Foz do Iguaçu — Graph

°F

Foz do Iguaçu Temperature Yesterday

Maximum temperature yesterday: 61 °F (at 3:00 PM)
Minimum temperature yesterday: 45 °F (at 6:00 AM)
Average temperature yesterday: 52 °F

High & Low Weather Summary for the Past Weeks

 TemperatureHumidityPressure
High81 °F (May 14, 2:00 PM)100% (May 9, 9:00 AM)30.36 "Hg (May 9, 9:00 AM)
Low45 °F (May 20, 11:00 AM)52% (May 18, 1:00 PM)29.77 "Hg (May 9, 9:00 PM)
Average62 °F86%30.07 "Hg
* Reported May 9 7:00 AM — May 24 7:00 AM, Foz do Iguaçu, Weather by CustomWeather, © 2016

Note: Actual official high and low records may vary slightly from our data, if they occured in-between our weather recording intervals... More about our weather records

Advertising

Foz do Iguaçu Weather History for the Previous 24 Hours

Scroll right to see more
 ConditionsComfort  
Time TempWeatherWind HumidityBarometerVisibility
7:00 AM
Tue, May 24
46 °FSunny.13 mph93%30.30 "Hg10 mi
6:00 AM46 °FClear.14 mph93%30.27 "Hg10 mi
5:00 AM46 °FClear.14 mph87%30.27 "Hg10 mi
4:00 AM45 °FClear.10 mph93%30.27 "Hg10 mi
3:00 AM45 °FClear.9 mph93%30.27 "Hg10 mi
2:00 AM45 °FClear.9 mph93%30.30 "Hg10 mi
1:00 AM46 °FClear.10 mph87%30.30 "Hg10 mi
12:00 AM46 °FClear.10 mph87%30.30 "Hg10 mi
11:00 PM
Mon, May 23
48 °FClear.6 mph87%30.30 "Hg10 mi
10:00 PM45 °FClear.2 mph100%30.30 "Hg10 mi
9:00 PM48 °FClear.3 mph94%30.30 "Hg10 mi
8:00 PM50 °FClear.6 mph88%30.30 "Hg10 mi
7:00 PM50 °FClear.6 mph94%30.30 "Hg10 mi
6:00 PM54 °FClear.5 mph88%30.30 "Hg10 mi
5:00 PM61 °FPassing clouds.6 mph68%30.27 "HgN/A
4:00 PM59 °FScattered clouds.6 mph68%30.27 "HgN/A
3:00 PM61 °FScattered clouds.3 mph59%30.27 "HgN/A
2:00 PM59 °FScattered clouds.8 mph59%30.30 "HgN/A
1:00 PM57 °FScattered clouds.9 mph67%30.33 "HgN/A
12:00 PM54 °FScattered clouds.9 mph77%30.33 "HgN/A
11:00 AM55 °FPartly sunny.6 mph77%30.36 "HgN/A
10:00 AM52 °FPartly sunny.6 mph88%30.36 "HgN/A
9:00 AM50 °FPassing clouds.6 mph94%30.33 "HgN/A
8:00 AM46 °FPassing clouds.3 mph93%30.30 "HgN/A
Weather by CustomWeather, © 2016

See weather overviewHow to use our weather pages